• In Deutschland
  • Länderverzeichnis
  • Für 7 Tage
  • Wassertemperatur
  • Satellitenkarten
  • Wetterkarte
  • Widgets
  • user-avatar
    Anmelden

    Stündliche Wetter Zülpich

    Heute, 20 Juli, Freitag

    Zeit Temperatur Niederschläge Wind Luftdruck Luftfeuchtigkeit
    00:00 +19°C° 0 mm 1 m/S 747 mmHg 68%
    01:00 +18°C° 0 mm 1 m/S 747 mmHg 69%
    02:00 +18°C° 0 mm 1 m/S 747 mmHg 71%
    03:00 +18°C° 0 mm 1 m/S 747 mmHg 72%
    04:00 +19°C° 0 mm 1 m/S 747 mmHg 70%
    05:00 +20°C° 0 mm 1 m/S 747 mmHg 68%
    06:00 +21°C° 0 mm 1 m/S 747 mmHg 66%
    07:00 +23°C° 0 mm 1 m/S 747 mmHg 60%
    08:00 +25°C° 0 mm 1 m/S 746 mmHg 53%
    09:00 +27°C° 0 mm 1 m/S 746 mmHg 47%
    10:00 +28°C° 0 mm 1 m/S 746 mmHg 45%
    11:00 +29°C° 0 mm 1 m/S 746 mmHg 43%
    12:00 +30°C° 0 mm 1 m/S 746 mmHg 41%
    13:00 +30°C° 0,4 mm 1 m/S 745 mmHg 43%
    14:00 +29°C° 0,4 mm 1 m/S 745 mmHg 45%
    15:00 +29°C° 0,4 mm 1 m/S 745 mmHg 46%
    16:00 +28°C° 0,2 mm 1 m/S 744 mmHg 51%
    17:00 +27°C° 0,2 mm 1 m/S 744 mmHg 55%
    18:00 +26°C° 0,2 mm 1 m/S 744 mmHg 60%
    19:00 +25°C° 0,2 mm 1 m/S 744 mmHg 63%
    20:00 +23°C° 0,2 mm 1 m/S 744 mmHg 67%
    21:00 +22°C° 0,2 mm 1 m/S 744 mmHg 70%
    22:00 +21°C° 0,4 mm 1 m/S 744 mmHg 73%
    23:00 +21°C° 0,4 mm 1 m/S 744 mmHg 76%

    Morgen, 21 Juli, Samstag

    Zeit Temperatur Niederschläge Wind Luftdruck Luftfeuchtigkeit
    00:00 +20°C° 0,4 mm 1 m/S 743 mmHg 79%
    01:00 +19°C° 0,1 mm 1 m/S 743 mmHg 80%
    02:00 +19°C° 0,1 mm 1 m/S 743 mmHg 81%
    03:00 +19°C° 0,1 mm 1 m/S 743 mmHg 82%
    04:00 +20°C° 0 mm 1 m/S 743 mmHg 80%
    05:00 +21°C° 0 mm 1 m/S 743 mmHg 79%
    06:00 +21°C° 0 mm 1 m/S 743 mmHg 77%
    07:00 +24°C° 0 mm 1 m/S 743 mmHg 69%
    08:00 +26°C° 0 mm 1 m/S 744 mmHg 61%
    09:00 +28°C° 0 mm 1 m/S 744 mmHg 53%
    10:00 +28°C° 0,5 mm 1 m/S 744 mmHg 53%
    11:00 +29°C° 0,5 mm 1 m/S 743 mmHg 52%
    12:00 +30°C° 0,5 mm 1 m/S 743 mmHg 51%
    13:00 +29°C° 0,2 mm 1 m/S 743 mmHg 52%
    14:00 +29°C° 0,2 mm 1 m/S 743 mmHg 53%
    15:00 +29°C° 0,2 mm 1 m/S 743 mmHg 54%
    16:00 +28°C° 0,3 mm 1 m/S 743 mmHg 58%
    17:00 +27°C° 0,3 mm 1 m/S 743 mmHg 62%
    18:00 +26°C° 0,3 mm 1 m/S 744 mmHg 66%
    19:00 +25°C° 0,2 mm 1 m/S 744 mmHg 70%
    20:00 +23°C° 0,2 mm 1 m/S 744 mmHg 74%
    21:00 +21°C° 0,2 mm 2 m/S 744 mmHg 78%
    22:00 +21°C° 0,5 mm 1 m/S 744 mmHg 81%
    23:00 +21°C° 0,5 mm 1 m/S 744 mmHg 84%

    übermorgen, 22 Juli, Sonntag

    Zeit Temperatur Niederschläge Wind Luftdruck Luftfeuchtigkeit
    00:00 +20°C° 0,5 mm 1 m/S 744 mmHg 88%
    01:00 +19°C° 0,6 mm 1 m/S 744 mmHg 90%
    02:00 +19°C° 0,6 mm 1 m/S 744 mmHg 91%
    03:00 +19°C° 0,6 mm 1 m/S 745 mmHg 93%
    04:00 +18°C° 0,2 mm 2 m/S 745 mmHg 92%
    05:00 +18°C° 0,2 mm 2 m/S 745 mmHg 92%
    06:00 +19°C° 0,2 mm 2 m/S 745 mmHg 91%
    07:00 +20°C° 0,1 mm 2 m/S 745 mmHg 85%
    08:00 +21°C° 0,1 mm 2 m/S 745 mmHg 79%
    09:00 +24°C° 0,1 mm 3 m/S 745 mmHg 73%
    10:00 +25°C° 0,2 mm 3 m/S 745 mmHg 67%
    11:00 +27°C° 0,2 mm 3 m/S 745 mmHg 62%
    12:00 +28°C° 0,2 mm 3 m/S 745 mmHg 56%
    13:00 +28°C° 0,4 mm 3 m/S 745 mmHg 57%
    14:00 +28°C° 0,4 mm 3 m/S 745 mmHg 58%
    15:00 +28°C° 0,4 mm 3 m/S 745 mmHg 59%
    16:00 +27°C° 0,4 mm 3 m/S 745 mmHg 62%
    17:00 +26°C° 0,4 mm 2 m/S 745 mmHg 65%
    18:00 +26°C° 0,4 mm 2 m/S 745 mmHg 67%
    19:00 +24°C° 0 mm 2 m/S 746 mmHg 70%
    20:00 +23°C° 0 mm 2 m/S 746 mmHg 73%
    21:00 +20°C° 0 mm 2 m/S 747 mmHg 75%
    22:00 +20°C° 0 mm 2 m/S 747 mmHg 78%
    23:00 +19°C° 0 mm 2 m/S 747 mmHg 80%

    23 Juli, Montag

    Zeit Temperatur Niederschläge Wind Luftdruck Luftfeuchtigkeit
    00:00 +19°C° 0 mm 1 m/S 747 mmHg 82%
    01:00 +19°C° 0 mm 1 m/S 747 mmHg 83%
    02:00 +18°C° 0 mm 1 m/S 747 mmHg 85%
    03:00 +18°C° 0 mm 1 m/S 747 mmHg 86%
    04:00 +19°C° 0 mm 1 m/S 747 mmHg 83%
    05:00 +19°C° 0 mm 1 m/S 747 mmHg 81%
    06:00 +20°C° 0 mm 1 m/S 747 mmHg 78%
    07:00 +22°C° 0 mm 1 m/S 747 mmHg 70%
    08:00 +24°C° 0 mm 1 m/S 748 mmHg 62%
    09:00 +26°C° 0 mm 1 m/S 748 mmHg 54%
    10:00 +27°C° 0 mm 1 m/S 747 mmHg 50%
    11:00 +28°C° 0 mm 2 m/S 747 mmHg 46%
    12:00 +29°C° 0 mm 2 m/S 747 mmHg 42%
    13:00 +29°C° 0 mm 2 m/S 747 mmHg 42%
    14:00 +29°C° 0 mm 2 m/S 747 mmHg 42%
    15:00 +29°C° 0 mm 2 m/S 746 mmHg 42%
    16:00 +28°C° 0 mm 2 m/S 746 mmHg 47%
    17:00 +27°C° 0 mm 1 m/S 746 mmHg 52%
    18:00 +27°C° 0 mm 1 m/S 746 mmHg 57%
    19:00 +25°C° 0 mm 1 m/S 746 mmHg 60%
    20:00 +23°C° 0 mm 1 m/S 747 mmHg 64%
    21:00 +22°C° 0 mm 1 m/S 747 mmHg 68%
    22:00 +21°C° 0 mm 1 m/S 747 mmHg 71%
    23:00 +21°C° 0 mm 1 m/S 746 mmHg 73%

    24 Juli, Dienstag

    Zeit Temperatur Niederschläge Wind Luftdruck Luftfeuchtigkeit
    00:00 +20°C° 0 mm 1 m/S 746 mmHg 76%
    01:00 +20°C° 0 mm 1 m/S 746 mmHg 77%
    02:00 +19°C° 0 mm 1 m/S 746 mmHg 78%
    03:00 +19°C° 0 mm 1 m/S 746 mmHg 79%
    04:00 +20°C° 0 mm 1 m/S 746 mmHg 76%
    05:00 +21°C° 0 mm 1 m/S 746 mmHg 72%
    06:00 +22°C° 0 mm 1 m/S 746 mmHg 69%
    07:00 +24°C° 0 mm 1 m/S 746 mmHg 62%
    08:00 +26°C° 0 mm 1 m/S 745 mmHg 56%
    09:00 +29°C° 0 mm 1 m/S 745 mmHg 49%
    10:00 +29°C° 0 mm 1 m/S 745 mmHg 46%
    11:00 +30°C° 0 mm 1 m/S 745 mmHg 44%
    12:00 +31°C° 0 mm 1 m/S 744 mmHg 41%
    13:00 +31°C° 0 mm 1 m/S 744 mmHg 42%
    14:00 +30°C° 0 mm 1 m/S 744 mmHg 42%
    15:00 +30°C° 0 mm 1 m/S 744 mmHg 43%
    16:00 +29°C° 0 mm 1 m/S 744 mmHg 48%
    17:00 +28°C° 0 mm 1 m/S 744 mmHg 52%
    18:00 +28°C° 0 mm 1 m/S 744 mmHg 57%
    19:00 +26°C° 0 mm 1 m/S 744 mmHg 60%
    20:00 +25°C° 0 mm 1 m/S 744 mmHg 63%
    21:00 +23°C° 0 mm 1 m/S 744 mmHg 66%
    22:00 +23°C° 0 mm 1 m/S 744 mmHg 67%
    23:00 +22°C° 0 mm 1 m/S 745 mmHg 68%

    25 Juli, Mittwoch

    Zeit Temperatur Niederschläge Wind Luftdruck Luftfeuchtigkeit
    00:00 +22°C° 0 mm 1 m/S 745 mmHg 69%
    01:00 +22°C° 0 mm 1 m/S 745 mmHg 70%
    02:00 +21°C° 0 mm 1 m/S 745 mmHg 71%
    03:00 +21°C° 0 mm 1 m/S 745 mmHg 73%
    04:00 +22°C° 0 mm 1 m/S 745 mmHg 71%
    05:00 +23°C° 0 mm 1 m/S 745 mmHg 70%
    06:00 +24°C° 0 mm 1 m/S 745 mmHg 68%
    07:00 +25°C° 0,1 mm 1 m/S 745 mmHg 64%
    08:00 +27°C° 0,1 mm 1 m/S 745 mmHg 59%
    09:00 +28°C° 0,1 mm 1 m/S 745 mmHg 55%
    10:00 +29°C° 0,5 mm 2 m/S 745 mmHg 54%
    11:00 +29°C° 0,5 mm 2 m/S 745 mmHg 54%
    12:00 +30°C° 0,5 mm 2 m/S 745 mmHg 54%
    13:00 +30°C° 0,6 mm 2 m/S 745 mmHg 55%
    14:00 +29°C° 0,6 mm 2 m/S 745 mmHg 56%
    15:00 +29°C° 0,6 mm 2 m/S 745 mmHg 57%
    16:00 +28°C° 0,4 mm 2 m/S 745 mmHg 61%
    17:00 +27°C° 0,4 mm 2 m/S 746 mmHg 64%
    18:00 +26°C° 0,4 mm 2 m/S 746 mmHg 68%
    19:00 +25°C° 0,2 mm 2 m/S 746 mmHg 72%
    20:00 +24°C° 0,2 mm 2 m/S 747 mmHg 76%
    21:00 +21°C° 0,2 mm 2 m/S 747 mmHg 80%
    22:00 +20°C° 0 mm 2 m/S 747 mmHg 82%
    23:00 +20°C° 0 mm 2 m/S 747 mmHg 84%
    Mehr zeigen